Weather History for Corinth, MS

Change the Weather History Date:

Monday, November 14, 2011

  Actual Average Record
Temperature  
Mean Temperature 70 °F -  
Max Temperature 77 °F 62 °F 84 °F (1955)
Min Temperature 64 °F 38 °F 20 °F (1940)
Cooling Degree Days 6    
Growing Degree Days 20 (Base 50)    
Moisture  
Dew Point 57 °F    
Average Humidity 64    
Maximum Humidity 83    
Minimum Humidity 47    
Precipitation  
Precipitation 0.00 in - - ()
Sea Level Pressure  
Sea Level Pressure 29.91 in    
Wind  
Wind Speed 11 mph (South)    
Max Wind Speed 20 mph    
Max Gust Speed 28 mph    
Visibility 10 miles    
Events      
Averages and records for this station are not official NWS values.
T = Trace of Precipitation, MM = Missing Value Source: NWS Daily Summary

Daily Weather History Graph

Daily Weather History Graph

Search for Another Location

Airport:

Trip Planner

Search our weather history database for the weather conditions in past years. The results will help you decide how hot, cold, wet, or windy it might be!

Date:

Astronomy

Nov. 14, 2011 Rise Set
Actual Time 6:27 AM CST 4:49 PM CST
Civil Twilight 6:00 AM CST 5:16 PM CST
Nautical Twilight 5:30 AM CST 5:47 PM CST
Astronomical Twilight 5:00 AM CST 6:16 PM CST
Moon 7:59 PM CST (11/14) 9:42 AM CST (11/14)
Length of Visible Light 11h 15m
Length of Day
10h 22m
Waning Gibbous, 86% of the Moon is Illuminated
Nov 14
Waning Gibbous
Nov 18
Last Quarter
Nov 25
New
Dec 2
First Quarter
Dec 10
Full

Hourly Weather History & Observations

Time (CST) Temp. Dew Point Humidity Pressure Visibility Wind Dir Wind Speed Gust Speed Precip Events Conditions
12:10 AM 66.2 °F 55.4 °F 68% 29.91 in 10.0 mi South 10.4 mph 17.3 mph N/A   Unknown
12:30 AM 66.2 °F 57.2 °F 73% 29.91 in 10.0 mi South 11.5 mph 19.6 mph N/A   Unknown
12:50 AM 66.2 °F 57.2 °F 73% 29.91 in 10.0 mi South 11.5 mph 20.7 mph N/A   Unknown
1:10 AM 66.2 °F 57.2 °F 73% 29.91 in 10.0 mi South 13.8 mph 19.6 mph N/A   Unknown
1:30 AM 66.2 °F 57.2 °F 73% 29.91 in 10.0 mi South 12.7 mph 19.6 mph N/A   Unknown
1:50 AM 66.2 °F 57.2 °F 73% 29.92 in 10.0 mi South 10.4 mph 17.3 mph N/A   Unknown
2:10 AM 66.2 °F 57.2 °F 73% 29.93 in 10.0 mi SSW 10.4 mph - N/A   Unknown
2:50 AM 64.4 °F 57.2 °F 77% 29.93 in 10.0 mi South 9.2 mph - N/A   Unknown
3:10 AM 64.4 °F 59.0 °F 83% 29.93 in 10.0 mi South 9.2 mph - N/A   Unknown
3:30 AM 66.2 °F 59.0 °F 78% 29.93 in 10.0 mi South 10.4 mph - N/A   Unknown
3:50 AM 66.2 °F 59.0 °F 78% 29.93 in 10.0 mi South 11.5 mph 16.1 mph N/A   Unknown
4:10 AM 66.2 °F 59.0 °F 78% 29.93 in 10.0 mi South 10.4 mph 17.3 mph N/A   Unknown
4:30 AM 64.4 °F 59.0 °F 83% 29.93 in 10.0 mi South 11.5 mph - N/A   Unknown
5:10 AM 64.4 °F 59.0 °F 83% 29.93 in 10.0 mi South 11.5 mph 16.1 mph N/A   Unknown
5:30 AM 64.4 °F 59.0 °F 83% 29.93 in 10.0 mi South 10.4 mph 17.3 mph N/A   Unknown
6:10 AM 64.4 °F 59.0 °F 83% 29.94 in 10.0 mi South 8.1 mph - N/A   Unknown
6:30 AM 64.4 °F 59.0 °F 83% 29.94 in 10.0 mi South 6.9 mph - N/A   Unknown
7:10 AM 66.2 °F 59.0 °F 78% 29.95 in 10.0 mi South 8.1 mph - N/A   Unknown
7:30 AM 66.2 °F 59.0 °F 78% 29.95 in 10.0 mi South 9.2 mph - N/A   Unknown
7:50 AM 66.2 °F 59.0 °F 78% 29.95 in 10.0 mi South 11.5 mph 16.1 mph N/A   Unknown
8:10 AM 66.2 °F 59.0 °F 78% 29.96 in 10.0 mi South 11.5 mph - N/A   Unknown
8:30 AM 66.2 °F 59.0 °F 78% 29.96 in 10.0 mi South 10.4 mph 16.1 mph N/A   Unknown
8:50 AM 68.0 °F 59.0 °F 73% 29.97 in 10.0 mi South 8.1 mph - N/A   Unknown
9:10 AM 69.8 °F 59.0 °F 68% 29.96 in 10.0 mi South 6.9 mph - N/A   Unknown
9:30 AM 71.6 °F 59.0 °F 64% 29.97 in 10.0 mi SSW 12.7 mph 20.7 mph N/A   Unknown
9:50 AM 71.6 °F 59.0 °F 64% 29.97 in 10.0 mi SW 10.4 mph 19.6 mph N/A   Unknown
10:10 AM 73.4 °F 57.2 °F 57% 29.97 in 10.0 mi SSW 15.0 mph 25.3 mph N/A   Unknown
10:30 AM 75.2 °F 59.0 °F 57% 29.96 in 10.0 mi SW 12.7 mph 24.2 mph N/A   Unknown
10:50 AM 75.2 °F 59.0 °F 57% 29.95 in 10.0 mi SSW 15.0 mph 26.5 mph N/A   Unknown
11:10 AM 77.0 °F 59.0 °F 54% 29.93 in 10.0 mi SSW 17.3 mph 25.3 mph N/A   Unknown
11:30 AM 77.0 °F 57.2 °F 50% 29.92 in 10.0 mi SSW 13.8 mph 24.2 mph N/A   Partly Cloudy
11:50 AM 77.0 °F 57.2 °F 50% 29.91 in 10.0 mi SSW 16.1 mph 20.7 mph N/A   Mostly Cloudy
12:10 PM 77.0 °F 57.2 °F 50% 29.90 in 10.0 mi SSW 19.6 mph 27.6 mph N/A   Mostly Cloudy
12:30 PM 77.0 °F 57.2 °F 50% 29.89 in 10.0 mi SSW 17.3 mph 26.5 mph N/A   Mostly Cloudy
12:50 PM 77.0 °F 57.2 °F 50% 29.88 in 10.0 mi SSW 16.1 mph 27.6 mph N/A   Mostly Cloudy
1:10 PM 77.0 °F 57.2 °F 50% 29.87 in 10.0 mi SSW 9.2 mph 20.7 mph N/A   Overcast
1:30 PM 77.0 °F 57.2 °F 50% 29.87 in 10.0 mi SSW 13.8 mph 25.3 mph N/A   Overcast
1:50 PM 77.0 °F 57.2 °F 50% 29.87 in 10.0 mi SW 16.1 mph 24.2 mph N/A   Overcast
2:10 PM 77.0 °F 55.4 °F 47% 29.87 in 10.0 mi SW 15.0 mph 24.2 mph N/A   Overcast
2:30 PM 77.0 °F 57.2 °F 50% 29.86 in 10.0 mi SW 15.0 mph 23.0 mph N/A   Overcast
2:50 PM 77.0 °F 55.4 °F 47% 29.86 in 10.0 mi SSW 17.3 mph 27.6 mph N/A   Overcast
3:10 PM 77.0 °F 55.4 °F 47% 29.86 in 10.0 mi SSW 10.4 mph 21.9 mph N/A   Overcast
3:30 PM 77.0 °F 55.4 °F 47% 29.86 in 10.0 mi SSW 15.0 mph 23.0 mph N/A   Mostly Cloudy
3:50 PM 77.0 °F 55.4 °F 47% 29.86 in 10.0 mi SSW 12.7 mph 20.7 mph N/A   Mostly Cloudy
4:10 PM 75.2 °F 55.4 °F 50% 29.85 in 10.0 mi SSW 10.4 mph 19.6 mph N/A   Mostly Cloudy
4:30 PM 75.2 °F 55.4 °F 50% 29.85 in 10.0 mi South 10.4 mph 16.1 mph N/A   Partly Cloudy
4:50 PM 73.4 °F 55.4 °F 53% 29.85 in 10.0 mi South 10.4 mph - N/A   Clear
5:10 PM 73.4 °F 55.4 °F 53% 29.86 in 10.0 mi South 8.1 mph - N/A   Clear
5:30 PM 71.6 °F 55.4 °F 57% 29.87 in 10.0 mi SSW 6.9 mph - N/A   Clear
5:50 PM 71.6 °F 55.4 °F 57% 29.88 in 10.0 mi South 4.6 mph - N/A   Scattered Clouds
6:10 PM 71.6 °F 55.4 °F 57% 29.89 in 10.0 mi SSW 6.9 mph - N/A   Mostly Cloudy
6:30 PM 69.8 °F 55.4 °F 60% 29.88 in 10.0 mi South 6.9 mph - N/A   Unknown
6:50 PM 68.0 °F 57.2 °F 68% 29.88 in 10.0 mi South 8.1 mph - N/A   Unknown
7:10 PM 68.0 °F 57.2 °F 68% 29.88 in 10.0 mi South 10.4 mph - N/A   Clear
7:30 PM 68.0 °F 57.2 °F 68% 29.88 in 10.0 mi South 9.2 mph - N/A   Unknown
7:50 PM 68.0 °F 57.2 °F 68% 29.88 in 10.0 mi South 9.2 mph - N/A   Unknown
8:10 PM 68.0 °F 57.2 °F 68% 29.88 in 10.0 mi South 8.1 mph - N/A   Unknown
8:30 PM 68.0 °F 57.2 °F 68% 29.88 in 10.0 mi South 8.1 mph - N/A   Unknown
8:50 PM 68.0 °F 57.2 °F 68% 29.88 in 10.0 mi South 6.9 mph - N/A   Unknown
9:10 PM 68.0 °F 57.2 °F 68% 29.89 in 10.0 mi South 5.8 mph - N/A   Unknown
9:30 PM 66.2 °F 57.2 °F 73% 29.89 in 10.0 mi South 8.1 mph - N/A   Unknown
9:50 PM 66.2 °F 57.2 °F 73% 29.89 in 10.0 mi SSE 10.4 mph - N/A   Partly Cloudy
10:10 PM 66.2 °F 57.2 °F 73% 29.88 in 10.0 mi South 10.4 mph - N/A   Partly Cloudy
10:30 PM 64.4 °F 57.2 °F 77% 29.87 in 10.0 mi SSE 11.5 mph - N/A   Partly Cloudy
10:50 PM 66.2 °F 59.0 °F 78% 29.87 in 10.0 mi South 9.2 mph - N/A   Clear
11:10 PM 66.2 °F 60.8 °F 83% 29.88 in 10.0 mi South 9.2 mph - N/A   Clear
11:30 PM 66.2 °F 60.8 °F 83% 29.89 in 10.0 mi South 8.1 mph - N/A   Clear
11:50 PM 66.2 °F 62.6 °F 88% 29.89 in 10.0 mi South 8.1 mph - N/A   Unknown